contact:dominique.lefevre@mio.osupytheas.fr, maurice.libes@osupytheas.fr
Project:EMSO Ligure-ouest http://www.emso-fr.org/EMSO-France
Sensor Aquadopp, line 13 Serial AQD14315 
DOI : "https://doi.org/10.17882/74513; https://doi.org/10.17882/83244" 
Title:EMSO Ligure Ouest : Data ligne ALBATROSS capteur AQUADOPP - deploiement 2021
Id,Date,Profondeur,Latitude,Longitude,X_East,Y_North,Z_Up,Amplitude_X,Amplitude_Y,Amplitude_Z,Batterie,SoundSpeed,Heading,Pitch,Roll,Pressure,Temperature,Speed,Direction
, , m, degrees North, degrees East, m.s-1, m.s-1,m.s-1, 1, 1, 1, Volt, m.s-1, degree, degree, degree, dbar, degree_C, m.s-1, degree
09,2022-02-14T21:30:00,2000.0,42.79,6.0312,0.034,-0.018,0.0,67.0,64.0,67.0,12.1,1504.7,89.8,-1.0,1.0,1990.481,13.28,0.038,117.9
09,2022-02-14T22:00:00,2000.0,42.79,6.0312,0.064,0.019,-0.021,69.0,63.0,67.0,12.1,1504.6,76.6,-0.8,1.0,1990.526,13.27,0.066,73.5
09,2022-02-14T22:30:00,2000.0,42.79,6.0312,0.038,-0.007,-0.038,68.0,66.0,65.0,12.1,1504.6,83.2,-0.9,1.1,1990.5,13.27,0.038,100.4
09,2022-02-14T23:00:00,2000.0,42.79,6.0312,0.038,0.02,0.005,66.0,64.0,65.0,12.1,1504.6,73.9,-1.1,1.0,1990.529,13.27,0.042,62.2
09,2022-02-15T00:00:00,2000.0,42.79,6.0312,0.037,0.0,0.01,68.0,63.0,66.0,12.1,1504.6,84.2,-1.1,0.9,1990.529,13.27,0.037,90.0
09,2022-02-15T00:30:00,2000.0,42.79,6.0312,0.051,0.007,-0.009,68.0,64.0,66.0,12.2,1504.7,77.8,-1.1,0.9,1990.485,13.28,0.051,82.2
09,2022-02-15T01:00:00,2000.0,42.79,6.0312,0.062,0.006,-0.008,68.0,65.0,68.0,12.2,1504.6,80.9,-0.8,0.9,1990.45,13.27,0.062,84.5
09,2022-02-15T01:30:00,2000.0,42.79,6.0312,0.058,-0.014,-0.032,67.0,65.0,67.0,12.2,1504.7,88.5,-0.8,1.1,1990.505,13.28,0.059,103.6
09,2022-02-15T02:00:00,2000.0,42.79,6.0312,0.066,0.018,-0.019,67.0,65.0,69.0,12.2,1504.7,82.3,-1.3,1.0,1990.478,13.28,0.068,74.7
09,2022-02-15T02:30:00,2000.0,42.79,6.0312,0.051,-0.014,0.003,68.0,66.0,68.0,12.1,1504.7,97.4,-1.2,1.1,1990.523,13.28,0.052,105.3
09,2022-02-15T03:00:00,2000.0,42.79,6.0312,0.044,-0.021,-0.009,69.0,66.0,70.0,12.2,1504.7,103.5,-0.9,1.0,1990.507,13.28,0.048,115.5
09,2022-02-15T03:30:00,2000.0,42.79,6.0312,0.061,-0.027,-0.01,70.0,66.0,68.0,12.2,1504.6,103.3,-1.0,1.1,1990.563,13.27,0.066,113.9
09,2022-02-15T04:00:00,2000.0,42.79,6.0312,0.052,0.0,-0.021,70.0,64.0,68.0,12.2,1504.6,100.1,-1.0,1.0,1990.528,13.27,0.052,90.0
09,2022-02-15T04:30:00,2000.0,42.79,6.0312,0.04,-0.014,-0.002,70.0,66.0,69.0,12.1,1504.6,108.5,-1.0,1.0,1990.613,13.27,0.042,109.3
09,2022-02-15T05:00:00,2000.0,42.79,6.0312,0.056,0.0,-0.003,71.0,66.0,68.0,12.1,1504.6,101.3,-0.8,0.9,1990.602,13.27,0.056,90.0
09,2022-02-15T05:30:00,2000.0,42.79,6.0312,0.04,-0.001,-0.018,70.0,70.0,71.0,12.2,1504.6,108.6,-0.9,1.0,1990.651,13.27,0.04,91.4
09,2022-02-15T06:00:00,2000.0,42.79,6.0312,0.035,-0.021,-0.004,71.0,65.0,69.0,12.2,1504.6,100.7,-0.9,1.0,1990.697,13.27,0.04,121.0
09,2022-02-15T06:30:00,2000.0,42.79,6.0312,0.024,-0.003,-0.004,70.0,66.0,70.0,12.2,1504.7,95.7,-1.0,1.1,1990.686,13.28,0.024,97.1
09,2022-02-15T07:00:00,2000.0,42.79,6.0312,0.036,0.011,-0.005,69.0,65.0,72.0,12.2,1504.7,86.7,-0.9,1.0,1990.694,13.28,0.037,73.0
09,2022-02-15T07:30:00,2000.0,42.79,6.0312,0.004,-0.009,-0.013,69.0,66.0,68.0,12.1,1504.7,121.3,-0.8,0.9,1990.71,13.28,0.009,156.0
09,2022-02-15T08:00:00,2000.0,42.79,6.0312,0.021,-0.033,-0.01,71.0,66.0,69.0,12.2,1504.7,108.2,-0.8,0.9,1990.69,13.28,0.039,147.5
09,2022-02-15T08:30:00,2000.0,42.79,6.0312,0.049,-0.007,-0.008,70.0,66.0,69.0,12.2,1504.7,106.9,-0.8,0.8,1990.712,13.28,0.049,98.1
09,2022-02-15T09:00:00,2000.0,42.79,6.0312,0.04,-0.004,0.006,68.0,64.0,69.0,12.1,1504.7,105.0,-0.9,0.9,1990.7,13.28,0.04,95.7
09,2022-02-15T09:30:00,2000.0,42.79,6.0312,0.034,-0.021,-0.006,71.0,66.0,71.0,12.1,1504.7,122.3,-0.7,0.9,1990.67,13.28,0.039,121.7
09,2022-02-15T10:00:00,2000.0,42.79,6.0312,0.043,-0.001,-0.002,69.0,65.0,70.0,12.1,1504.7,87.9,-0.6,1.1,1990.642,13.28,0.043,91.3
09,2022-02-15T10:30:00,2000.0,42.79,6.0312,0.042,-0.007,-0.022,70.0,67.0,71.0,12.1,1504.7,100.5,-0.9,0.9,1990.639,13.28,0.042,99.5
09,2022-02-15T11:00:00,2000.0,42.79,6.0312,0.068,-0.012,-0.028,68.0,66.0,71.0,12.1,1504.7,97.7,-0.8,0.9,1990.679,13.28,0.069,100.0
09,2022-02-15T11:30:00,2000.0,42.79,6.0312,0.042,-0.004,-0.006,71.0,68.0,69.0,12.1,1504.7,102.2,-0.6,1.0,1990.593,13.28,0.042,95.4
09,2022-02-15T12:00:00,2000.0,42.79,6.0312,0.031,-0.017,-0.002,69.0,65.0,69.0,12.1,1504.7,89.5,-1.0,1.0,1990.591,13.28,0.035,118.7
09,2022-02-15T13:00:00,2000.0,42.79,6.0312,0.042,-0.009,-0.016,71.0,66.0,70.0,12.1,1504.7,101.8,-0.7,0.9,1990.54,13.28,0.042,102.1
09,2022-02-15T13:30:00,2000.0,42.79,6.0312,0.042,-0.03,-0.01,71.0,66.0,68.0,12.1,1504.7,92.1,-0.9,0.9,1990.532,13.28,0.051,125.5
09,2022-02-15T14:00:00,2000.0,42.79,6.0312,0.03,-0.01,-0.003,70.0,65.0,70.0,12.2,1504.7,93.5,-0.8,0.8,1990.517,13.28,0.031,108.4
09,2022-02-15T14:30:00,2000.0,42.79,6.0312,0.076,-0.008,-0.011,68.0,66.0,68.0,12.2,1504.7,84.8,-0.6,1.0,1990.511,13.28,0.076,96.0
09,2022-02-15T15:00:00,2000.0,42.79,6.0312,0.027,-0.014,-0.031,69.0,66.0,70.0,12.1,1504.6,80.8,-1.1,1.0,1990.509,13.27,0.03,117.4
09,2022-02-15T15:30:00,2000.0,42.79,6.0312,0.065,0.002,-0.025,70.0,66.0,67.0,12.2,1504.6,83.4,-0.8,0.9,1990.531,13.27,0.065,88.2
09,2022-02-15T16:00:00,2000.0,42.79,6.0312,0.064,-0.02,0.017,71.0,66.0,70.0,12.2,1504.6,82.8,-1.0,0.9,1990.552,13.27,0.067,107.4
09,2022-02-15T16:30:00,2000.0,42.79,6.0312,0.039,-0.014,-0.026,71.0,65.0,70.0,12.1,1504.6,77.8,-0.6,1.1,1990.577,13.27,0.041,109.7
09,2022-02-15T17:00:00,2000.0,42.79,6.0312,0.02,-0.034,-0.026,70.0,66.0,69.0,12.1,1504.6,95.4,-1.0,0.9,1990.565,13.27,0.039,149.5
09,2022-02-15T17:30:00,2000.0,42.79,6.0312,0.052,-0.004,0.016,68.0,66.0,68.0,12.1,1504.6,89.4,-1.2,0.9,1990.652,13.27,0.052,94.4
09,2022-02-15T18:00:00,2000.0,42.79,6.0312,0.029,-0.036,-0.009,69.0,66.0,69.0,12.2,1504.7,95.9,-0.9,0.9,1990.616,13.28,0.046,141.1
09,2022-02-15T18:30:00,2000.0,42.79,6.0312,0.047,-0.042,0.01,69.0,66.0,69.0,12.1,1504.6,92.3,-0.7,1.0,1990.612,13.27,0.063,131.8
09,2022-02-15T19:00:00,2000.0,42.79,6.0312,0.051,-0.007,0.013,68.0,66.0,73.0,12.1,1504.6,94.0,-0.7,1.0,1990.615,13.27,0.051,97.8
09,2022-02-15T19:30:00,2000.0,42.79,6.0312,0.035,-0.021,0.013,70.0,65.0,72.0,12.1,1504.6,103.4,-0.9,1.0,1990.644,13.27,0.04,121.0
09,2022-02-15T20:00:00,2000.0,42.79,6.0312,0.028,-0.018,-0.001,72.0,66.0,69.0,12.1,1504.6,98.1,-1.1,0.9,1990.561,13.27,0.033,122.7
09,2022-02-15T20:30:00,2000.0,42.79,6.0312,0.035,-0.011,0.006,71.0,65.0,73.0,12.1,1504.7,97.6,-0.7,1.0,1990.574,13.28,0.036,107.4
09,2022-02-15T21:00:00,2000.0,42.79,6.0312,0.045,-0.013,0.0,69.0,68.0,72.0,12.1,1504.7,105.0,-1.1,0.9,1990.577,13.28,0.046,106.1
